K5SJT Weather Reports


time (UTC)temp
C
wind
direction
speed
KPH
gust
KPH
rain 1hr
cm
rain 24hr
cm
rain mn
cm
humidity
%
barometer
mb
20260507103105 12 92 1.6 9.7 0.00 0.00 0.00 80 1016.3
20260507101601 13 78 3.2 12.9 0.00 0.00 0.00 79 1016.3
20260507100112 13 94 0.0 12.9 0.00 0.00 0.00 78 1016.6
20260507094557 13 98 1.6 6.4 0.00 0.00 0.00 78 1016.5
20260507093100 13 85 3.2 11.3 0.00 0.00 0.00 77 1016.2
20260507091559 13 111 3.2 9.7 0.00 0.00 0.00 77 1016.0
20260507090058 13 105 1.6 12.9 0.00 0.00 0.00 76 1016.0
20260507084600 13 127 3.2 11.3 0.00 0.00 0.00 76 1015.9
20260507083112 13 74 1.6 9.7 0.00 0.00 0.00 75 1015.8
20260507081601 13 73 1.6 11.3 0.00 0.00 0.00 76 1015.6
20260507080058 13 122 0.0 6.4 0.00 0.00 0.00 76 1015.4
20260507074611 13 86 0.0 3.2 0.00 0.00 0.00 76 1015.3
20260507073102 13 111 1.6 6.4 0.00 0.00 0.00 76 1014.9
20260507071556 14 73 1.6 6.4 0.00 0.00 0.00 75 1014.8
20260507070100 14 56 1.6 11.3 0.00 0.00 0.00 75 1014.7
20260507064557 14 66 1.6 4.8 0.00 0.00 0.00 76 1014.4
20260507063058 14 107 1.6 4.8 0.00 0.00 0.00 76 1014.1
20260507061557 14 82 1.6 9.7 0.00 0.00 0.00 77 1014.0
20260507060105 14 94 1.6 9.7 0.00 0.00 0.00 76 1013.9
20260507054558 14 97 1.6 9.7 0.00 0.00 0.00 75 1013.9
20260507053058 14 115 1.6 11.3 0.00 0.00 0.00 75 1013.9
20260507051601 15 88 3.2 8.0 0.00 0.00 0.00 75 1013.9
20260507050059 15 84 3.2 9.7 0.00 0.00 0.00 74 1013.6
20260507050005 15 90 1.6 9.7 0.00 0.00 0.00 74 1013.5
20260507044601 15 88 3.2 12.9 0.00 0.00 0.00 73 1013.5
20260507043102 15 109 6.4 16.1 0.00 0.00 0.00 75 1013.3
20260507041558 16 61 1.6 6.4 0.00 0.00 0.00 76 1013.3
20260507040059 16 84 3.2 6.4 0.00 0.00 0.00 76 1012.9
20260507034559 16 89 1.6 6.4 0.00 0.00 0.00 75 1012.4
20260507033059 16 90 1.6 4.8 0.00 0.00 0.00 74 1012.2
20260507031559 17 93 0.0 4.8 0.00 0.00 0.00 73 1012.0
20260507030100 17 119 3.2 8.0 0.00 0.00 0.00 72 1011.8
20260507024623 17 94 1.6 4.8 0.00 0.00 0.00 71 1011.6
20260507023058 17 90 1.6 4.8 0.00 0.00 0.00 70 1011.3
20260507021558 17 86 1.6 6.4 0.00 0.00 0.00 69 1010.9
20260507020111 18 114 1.6 9.7 0.00 0.00 0.00 67 1010.8
20260507014607 19 119 3.2 11.3 0.00 0.00 0.00 64 1010.7
20260507013058 20 90 1.6 6.4 0.00 0.00 0.00 60 1010.6
20260507011558 20 97 3.2 9.7 0.00 0.00 0.00 59 1010.5
20260507010058 20 90 1.6 11.3 0.00 0.00 0.00 58 1010.2
20260507004559 20 95 1.6 11.3 0.00 0.00 0.00 58 1010.1
20260507003059 20 115 3.2 9.7 0.00 0.00 0.00 58 1009.9
20260507001602 21 84 3.2 11.3 0.00 0.00 0.00 57 1009.7
20260507000100 21 86 3.2 11.3 0.00 0.00 0.00 57 1009.8
20260506234605 21 91 1.6 9.7 0.00 0.00 0.00 58 1009.8
20260506233101 21 84 1.6 6.4 0.00 0.00 0.00 57 1009.7
20260506231600 21 73 1.6 9.7 0.00 0.00 0.00 57 1009.6
20260506230100 21 90 0.0 6.4 0.00 0.00 0.00 56 1009.6
20260506224558 21 133 0.0 6.4 0.00 0.00 0.00 57 1009.4
20260506223059 21 123 3.2 9.7 0.00 0.00 0.00 57 1009.3
20260506221558 21 101 3.2 9.7 0.00 0.00 0.00 55 1009.2
20260506220058 21 118 0.0 11.3 0.00 0.00 0.00 55 1009.3
20260506214559 21 110 1.6 9.7 0.00 0.00 0.00 56 1009.3
20260506213131 21 102 3.2 9.7 0.00 0.00 0.00 58 1009.6
20260506211618 21 152 3.2 9.7 0.00 0.00 0.00 57 1009.5
20260506204600 21 100 1.6 11.3 0.00 0.00 0.00 58 1009.6
20260506203102 20 105 3.2 9.7 0.00 0.00 0.00 58 1010.0
20260506201609 20 355 0.0 12.9 0.00 0.00 0.00 61 1010.3
20260506194614 18 90 1.6 11.3 0.00 0.00 0.00 67 1010.6
20260506193101 18 122 3.2 6.4 0.00 0.00 0.00 67 1010.7
20260506191602 17 97 3.2 11.3 0.00 0.00 0.00 70 1010.7
20260506190058 16 90 1.6 11.3 0.00 0.00 0.00 70 1010.9
20260506184608 16 124 3.2 9.7 0.00 0.00 0.00 71 1010.9
20260506183103 16 92 3.2 12.9 0.00 0.00 0.00 69 1011.2
20260506181557 16 134 1.6 11.3 0.00 0.00 0.00 71 1011.4
20260506180057 16 96 3.2 11.3 0.00 0.00 0.00 70 1011.2
20260506174559 16 82 3.2 12.9 0.00 0.00 0.00 69 1011.4
20260506173103 16 91 3.2 11.3 0.00 0.00 0.00 69 1011.5
20260506171558 16 89 3.2 8.0 0.00 0.00 0.00 68 1011.3
20260506170114 16 49 1.6 8.0 0.00 0.00 0.00 69 1011.2
20260506164559 16 40 1.6 6.4 0.00 0.00 0.00 71 1011.3
20260506163110 15 84 3.2 6.4 0.00 0.00 0.00 73 1011.1
20260506161557 14 60 1.6 4.8 0.00 0.00 0.00 74 1011.0
20260506160100 14 85 0.0 6.4 0.00 0.00 0.00 75 1010.8
20260506154605 14 348 1.6 8.0 0.00 0.00 0.00 75 1010.7
20260506153058 13 336 1.6 6.4 0.00 0.00 0.00 76 1010.7
20260506151558 13 331 1.6 9.7 0.00 0.00 0.00 77 1010.4
20260506150100 13 11 3.2 6.4 0.00 0.00 0.00 79 1009.9
20260506144607 13 9 3.2 6.4 0.00 0.00 0.00 82 1010.2
20260506143103 12 351 3.2 9.7 0.00 0.00 0.00 82 1009.9
20260506141557 12 68 0.0 4.8 0.00 0.00 0.00 84 1009.8
20260506140057 12 41 1.6 6.4 0.00 0.00 0.00 84 1009.6
20260506134557 12 38 1.6 6.4 0.00 0.00 0.00 85 1009.5
20260506133056 11 5 1.6 8.0 0.00 0.00 0.00 85 1009.2
20260506131557 12 48 1.6 4.8 0.00 0.00 0.00 85 1008.7
20260506124556 12 84 3.2 12.9 0.00 0.00 0.00 82 1008.9
20260506123057 12 344 1.6 11.3 0.00 0.00 0.00 80 1009.1
20260506121558 13 76 4.8 11.3 0.00 0.00 0.00 79 1007.4
20260506120056 13 61 1.6 11.3 0.00 0.00 0.00 77 1007.5
20260506114557 13 90 0.0 11.3 0.00 0.00 0.00 76 1008.6
20260506113057 13 95 1.6 11.3 0.00 0.00 0.00 75 1007.1
20260506111557 13 67 1.6 6.4 0.00 0.00 0.00 75 1007.2
20260506110057 13 17 1.6 4.8 0.00 0.00 0.00 74 1007.0
20260506104600 13 63 0.0 4.8 0.00 0.00 0.00 75 1006.8